Powrót do katalogu

COSMOS 1275 DEB

AktywnyPO
NORAD 42114·DEBRIS·🇷🇺 Russia

Wystrzelony Jun 4, 1981 z Plesetsk Cosmodrome

Loading…

Następne Przeloty (najbliższe 24 godziny)

TLE

ŚwieżeSource: Space-Track

Epoka: Sep 13, 2026, 21:43 UTC

1 42114U 81053QA  26256.90499882  .00005031  00000-0  15180-2 0  9995
2 42114  82.8127 215.1966 0035585  23.4692  32.2912 14.41977734663892

Śledź COSMOS 1275 DEB w czasie rzeczywistym z AllMySat

Download on the App Store